Météo par heure à Jurkowo

Ce jour, 20 Juin, Dimanche

Heure Température Précipitation Vent Pression Humidité
00:00 +22°C° 0 mm 3 m/s 753 mmHg 76%
01:00 +22°C° 0 mm 3 m/s 753 mmHg 79%
02:00 +21°C° 0 mm 3 m/s 753 mmHg 80%
03:00 +21°C° 0 mm 4 m/s 753 mmHg 80%
04:00 +21°C° 0 mm 4 m/s 752 mmHg 80%
05:00 +22°C° 0 mm 4 m/s 752 mmHg 77%
06:00 +23°C° 0 mm 4 m/s 753 mmHg 73%
07:00 +25°C° 0 mm 5 m/s 753 mmHg 69%
08:00 +27°C° 0 mm 5 m/s 753 mmHg 63%
09:00 +28°C° 0 mm 5 m/s 753 mmHg 58%
10:00 +30°C° 0 mm 5 m/s 753 mmHg 52%
11:00 +32°C° 0 mm 5 m/s 752 mmHg 50%
12:00 +32°C° 0 mm 5 m/s 752 mmHg 48%
13:00 +33°C° 0 mm 4 m/s 752 mmHg 45%
14:00 +33°C° 0 mm 4 m/s 751 mmHg 46%
15:00 +33°C° 0 mm 3 m/s 751 mmHg 47%
16:00 +33°C° 0 mm 3 m/s 751 mmHg 49%
17:00 +31°C° 0 mm 3 m/s 751 mmHg 55%
18:00 +29°C° 0 mm 4 m/s 750 mmHg 61%
19:00 +28°C° 0 mm 4 m/s 750 mmHg 67%
20:00 +26°C° 0 mm 4 m/s 750 mmHg 68%
21:00 +25°C° 0 mm 4 m/s 750 mmHg 69%
22:00 +23°C° 0 mm 4 m/s 750 mmHg 69%
23:00 +22°C° 0 mm 3 m/s 750 mmHg 72%

Demain, 21 Juin, Lundi

Heure Température Précipitation Vent Pression Humidité
00:00 +22°C° 0 mm 3 m/s 750 mmHg 75%
01:00 +21°C° 0 mm 3 m/s 750 mmHg 77%
02:00 +20°C° 0 mm 3 m/s 749 mmHg 79%
03:00 +20°C° 0 mm 3 m/s 749 mmHg 81%
04:00 +19°C° 0 mm 3 m/s 749 mmHg 83%
05:00 +21°C° 0 mm 4 m/s 749 mmHg 79%
06:00 +22°C° 0 mm 4 m/s 749 mmHg 75%
07:00 +25°C° 0 mm 5 m/s 749 mmHg 72%
08:00 +27°C° 0 mm 5 m/s 749 mmHg 66%
09:00 +28°C° 0 mm 5 m/s 749 mmHg 61%
10:00 +30°C° 0 mm 5 m/s 749 mmHg 55%
11:00 +32°C° 0 mm 4 m/s 749 mmHg 52%
12:00 +33°C° 0 mm 3 m/s 749 mmHg 49%
13:00 +32°C° 0 mm 2 m/s 748 mmHg 47%
14:00 +33°C° 0.7 mm 3 m/s 748 mmHg 51%
15:00 +32°C° 0.7 mm 4 m/s 748 mmHg 56%
16:00 +30°C° 0.7 mm 5 m/s 748 mmHg 61%
17:00 +27°C° 2.6 mm 4 m/s 748 mmHg 69%
18:00 +23°C° 2.6 mm 4 m/s 749 mmHg 78%
19:00 +21°C° 2.6 mm 3 m/s 750 mmHg 87%
20:00 +20°C° 0.1 mm 2 m/s 750 mmHg 88%
21:00 +20°C° 0.1 mm 2 m/s 750 mmHg 89%
22:00 +20°C° 0.1 mm 2 m/s 750 mmHg 91%
23:00 +19°C° 0 mm 2 m/s 750 mmHg 92%

Après-demain, 22 Juin, Mardi

Heure Température Précipitation Vent Pression Humidité
00:00 +19°C° 0 mm 2 m/s 750 mmHg 93%
01:00 +19°C° 0 mm 2 m/s 751 mmHg 94%
02:00 +18°C° 0 mm 3 m/s 751 mmHg 95%
03:00 +18°C° 0 mm 3 m/s 751 mmHg 96%
04:00 +17°C° 0 mm 3 m/s 751 mmHg 97%
05:00 +18°C° 0 mm 3 m/s 752 mmHg 93%
06:00 +18°C° 0 mm 4 m/s 752 mmHg 89%
07:00 +19°C° 0 mm 4 m/s 752 mmHg 85%
08:00 +20°C° 0 mm 4 m/s 753 mmHg 79%
09:00 +21°C° 0 mm 3 m/s 753 mmHg 72%
10:00 +24°C° 0 mm 3 m/s 753 mmHg 66%
11:00 +25°C° 0 mm 3 m/s 753 mmHg 62%
12:00 +26°C° 0 mm 3 m/s 753 mmHg 59%
13:00 +27°C° 0 mm 3 m/s 753 mmHg 55%
14:00 +27°C° 0 mm 2 m/s 753 mmHg 54%
15:00 +27°C° 0 mm 2 m/s 753 mmHg 53%
16:00 +28°C° 0 mm 2 m/s 753 mmHg 52%
17:00 +27°C° 0 mm 2 m/s 753 mmHg 57%
18:00 +26°C° 0 mm 2 m/s 753 mmHg 62%
19:00 +25°C° 0 mm 2 m/s 753 mmHg 67%
20:00 +24°C° 0 mm 2 m/s 753 mmHg 70%
21:00 +22°C° 0 mm 3 m/s 753 mmHg 72%
22:00 +20°C° 0 mm 3 m/s 753 mmHg 75%
23:00 +19°C° 0 mm 3 m/s 753 mmHg 76%

23 Juin, Mercredi

Heure Température Précipitation Vent Pression Humidité
00:00 +19°C° 0 mm 3 m/s 753 mmHg 78%
01:00 +18°C° 0 mm 3 m/s 753 mmHg 80%
02:00 +18°C° 0.7 mm 3 m/s 753 mmHg 85%
03:00 +18°C° 0.7 mm 3 m/s 753 mmHg 90%
04:00 +18°C° 0.7 mm 2 m/s 753 mmHg 95%
05:00 +19°C° 1 mm 3 m/s 753 mmHg 95%
06:00 +19°C° 1 mm 4 m/s 753 mmHg 94%
07:00 +20°C° 1 mm 4 m/s 753 mmHg 94%
08:00 +21°C° 0.3 mm 4 m/s 753 mmHg 90%
09:00 +22°C° 0.3 mm 3 m/s 753 mmHg 87%
10:00 +25°C° 0.3 mm 2 m/s 753 mmHg 83%
11:00 +25°C° 0.4 mm 3 m/s 754 mmHg 82%
12:00 +25°C° 0.4 mm 3 m/s 754 mmHg 80%
13:00 +25°C° 0.4 mm 4 m/s 754 mmHg 78%
14:00 +23°C° 0 mm 5 m/s 755 mmHg 74%
15:00 +23°C° 0 mm 6 m/s 755 mmHg 70%
16:00 +22°C° 0 mm 7 m/s 756 mmHg 66%
17:00 +21°C° 0 mm 6 m/s 756 mmHg 69%
18:00 +19°C° 0 mm 6 m/s 756 mmHg 73%
19:00 +17°C° 0 mm 6 m/s 756 mmHg 77%
20:00 +16°C° 0 mm 5 m/s 756 mmHg 82%
21:00 +15°C° 0 mm 4 m/s 757 mmHg 87%
22:00 +14°C° 0 mm 3 m/s 757 mmHg 92%
23:00 +14°C° 0 mm 3 m/s 757 mmHg 91%

24 Juin, Jeudi

Heure Température Précipitation Vent Pression Humidité
00:00 +14°C° 0 mm 3 m/s 757 mmHg 90%
01:00 +14°C° 0 mm 3 m/s 757 mmHg 88%
02:00 +14°C° 0 mm 3 m/s 757 mmHg 91%
03:00 +13°C° 0 mm 3 m/s 757 mmHg 93%
04:00 +13°C° 0 mm 3 m/s 757 mmHg 95%
05:00 +14°C° 0 mm 3 m/s 757 mmHg 89%
06:00 +16°C° 0 mm 3 m/s 758 mmHg 84%
07:00 +17°C° 0 mm 4 m/s 758 mmHg 79%
08:00 +18°C° 0 mm 3 m/s 758 mmHg 75%
09:00 +19°C° 0 mm 2 m/s 758 mmHg 71%
10:00 +21°C° 0 mm 1 m/s 758 mmHg 66%
11:00 +22°C° 0 mm 1 m/s 758 mmHg 63%
12:00 +23°C° 0 mm 1 m/s 758 mmHg 60%
13:00 +25°C° 0 mm 1 m/s 757 mmHg 57%
14:00 +25°C° 0 mm 2 m/s 757 mmHg 56%
15:00 +25°C° 0 mm 2 m/s 756 mmHg 55%
16:00 +26°C° 0 mm 2 m/s 756 mmHg 54%
17:00 +25°C° 0 mm 2 m/s 756 mmHg 61%
18:00 +24°C° 0 mm 3 m/s 755 mmHg 67%
19:00 +22°C° 0 mm 3 m/s 755 mmHg 73%
20:00 +20°C° 1.4 mm 3 m/s 755 mmHg 77%
21:00 +19°C° 1.4 mm 2 m/s 755 mmHg 80%
22:00 +18°C° 1.4 mm 2 m/s 755 mmHg 84%
23:00 +18°C° 6.7 mm 3 m/s 755 mmHg 88%

25 Juin, Vendredi

Heure Température Précipitation Vent Pression Humidité
00:00 +17°C° 6.7 mm 4 m/s 755 mmHg 92%
01:00 +16°C° 6.7 mm 6 m/s 755 mmHg 96%
02:00 +15°C° 0.3 mm 5 m/s 755 mmHg 96%
03:00 +15°C° 0.3 mm 5 m/s 755 mmHg 95%
04:00 +14°C° 0.3 mm 5 m/s 755 mmHg 95%
05:00 +14°C° 0.1 mm 5 m/s 756 mmHg 92%
06:00 +15°C° 0.1 mm 4 m/s 756 mmHg 89%
07:00 +15°C° 0.1 mm 4 m/s 757 mmHg 86%
08:00 +15°C° 0 mm 4 m/s 757 mmHg 84%
09:00 +17°C° 0 mm 4 m/s 757 mmHg 82%
10:00 +17°C° 0 mm 4 m/s 758 mmHg 79%
11:00 +18°C° 0 mm 4 m/s 758 mmHg 74%
12:00 +20°C° 0 mm 4 m/s 758 mmHg 68%
13:00 +21°C° 0 mm 4 m/s 758 mmHg 62%
14:00 +21°C° 0 mm 3 m/s 758 mmHg 60%
15:00 +22°C° 0 mm 3 m/s 757 mmHg 58%
16:00 +23°C° 0 mm 2 m/s 757 mmHg 56%
17:00 +21°C° 0 mm 2 m/s 757 mmHg 60%
18:00 +22°C° 0 mm 1 m/s 757 mmHg 64%
19:00 +21°C° 0 mm 1 m/s 757 mmHg 68%
20:00 +20°C° 0 mm 1 m/s 757 mmHg 70%
21:00 +19°C° 0 mm 1 m/s 758 mmHg 72%
22:00 +18°C° 0 mm 1 m/s 758 mmHg 74%
23:00 +18°C° 0 mm 1 m/s 758 mmHg 75%
Voir plus

Nous avons besoin de votre consentement

Meteoprog et ses fournisseurs de services peuvent stocker et accéder à des données personnelles telles que des cookies, des identifiants d'appareils ou d'autres technologies similaires sur votre appareil et traiter ces données pour personnaliser le contenu et les publicités, ainsi que pour fournir des fonctionnalités de médias sociaux et analyser le trafic.

  • Stocker et/ou accéder à des informations sur votre appareil

    Des cookies, des identifiants d'appareils ou d'autres informations peuvent être stockés ou accessibles sur votre appareil aux fins indiquées ci-dessus.

  • Annonces et contenus personnalisés, mesure des annonces et des contenus, connaissance de l'audience et développement de produits

    Les annonces et le contenu peuvent être personnalisés en fonction d'un profil. D'autres données peuvent être ajoutées pour mieux personnaliser les annonces et le contenu. Les performances des publicités et du contenu peuvent être mesurées. Il est possible d'obtenir des informations sur le public qui a vu les publicités et le contenu. Ces données peuvent être utilisées pour développer ou améliorer l'expérience de l'utilisateur, les systèmes et les logiciels.

En cliquant sur "J'accepte", vous autorisez l'utilisation de cookies, des identifiants d'appareils, des balises web ou d'autres technologies similaires. Vos paramètres peuvent être modifiés dans le navigateur de votre appareil.

Dans certains cas, des intérêts légitimes peuvent être invoqués plutôt qu'un consentement. Vous pouvez en savoir plus à ce sujet dans notre Politique de confidentialité et de cookies.